This is the latest recevied weather packets stored in our database for station/object VE1UHF-4. If no packets are shown the sender has not sent any weather packets the latest 10 day(s).
| Time | Temp. | Humidity | Pressure | Rain* | Wind** | Luminosity | Snow |
|---|---|---|---|---|---|---|---|
| 1778057368 | 15° C | 80% | 1005.7 hPa | 0 mm | - | - | - |
| 1778056467 | 15° C | 78% | 1005.6 hPa | 0 mm | - | - | - |
| 1778055567 | 15° C | 78% | 1005.6 hPa | 0 mm | - | - | - |
| 1778054666 | 15° C | 77% | 1005.4 hPa | 0 mm | - | - | - |
| 1778053765 | 15° C | 77% | 1005.7 hPa | 0 mm | - | - | - |
| 1778052865 | 15° C | 77% | 1005.7 hPa | 0 mm | - | - | - |
| 1778051965 | 15° C | 77% | 1005.5 hPa | 0 mm | - | - | - |
| 1778051064 | 15° C | 76% | 1005.7 hPa | 0 mm | - | - | - |
| 1778050163 | 15.56° C | 76% | 1005.6 hPa | 0 mm | - | - | - |
| 1778049263 | 15.56° C | 76% | 1005.3 hPa | 0 mm | - | - | - |
| 1778048362 | 15.56° C | 75% | 1005.1 hPa | 0 mm | - | - | - |
| 1778047462 | 15.56° C | 74% | 1005.1 hPa | 0 mm | - | - | - |
| 1778046561 | 16.11° C | 75% | 1004.9 hPa | 0 mm | - | - | - |
| 1778045661 | 16.11° C | 75% | 1004.7 hPa | 0 mm | - | - | - |
| 1778044760 | 16.11° C | 74% | 1005 hPa | 0 mm | - | - | - |
| 1778043859 | 16.67° C | 74% | 1004.9 hPa | 0 mm | - | - | - |
| 1778042959 | 16.67° C | 73% | 1005 hPa | 0 mm | - | - | - |
| 1778042058 | 16.67° C | 73% | 1004.7 hPa | 0 mm | - | - | - |
| 1778041158 | 17.22° C | 73% | 1004.6 hPa | 0 mm | - | - | - |
| 1778040257 | 17.22° C | 73% | 1004.6 hPa | 0 mm | - | - | - |
| 1778037553 | 18.33° C | 72% | 1004.6 hPa | 0 mm | - | - | - |
| 1778036652 | 18.33° C | 72% | 1004.7 hPa | 0 mm | - | - | - |
| 1778035752 | 18.33° C | 71% | 1005 hPa | 0 mm | - | - | - |
| 1778034852 | 18.89° C | 71% | 1004.9 hPa | 0 mm | - | - | - |
| 1778033950 | 18.89° C | 71% | 1004.7 hPa | 0 mm | - | - | - |
* Rain since midnight (hover to see other rain measurements)
** Current wind speed in m/s (hover to see current wind gust speed)